| time (UTC) | temp C | wind direction | speed KPH | gust KPH | rain 1hr cm | rain 24hr cm | rain mn cm | humidity % | barometer mb |
| 20260509183013 | 20 | 166 | 0.0 | 8.0 | 0.00 | 0.00 | 0.00 | 76 | 1009.2 |
| 20260509182603 | 20 | 190 | 0.0 | 3.2 | 0.00 | 0.00 | 0.00 | 78 | 1009.3 |
| 20260509182003 | 20 | 190 | 0.0 | 3.2 | 0.00 | 0.00 | 0.00 | 75 | 1009.6 |
| 20260509181508 | 20 | 242 | 0.0 | 1.6 | 0.00 | 0.00 | 0.00 | 75 | 1009.6 |
| 20260509181103 | 20 | 202 | 0.0 | 4.8 | 0.00 | 0.00 | 0.00 | 75 | 1009.6 |
| 20260509180503 | 20 | 202 | 0.0 | 11.3 | 0.00 | 0.00 | 0.00 | 74 | 1009.7 |
| 20260509180009 | 20 | 153 | 0.0 | 11.3 | 0.00 | 0.00 | 0.00 | 73 | 1009.7 |
| 20260509175603 | 20 | 221 | 3.2 | 11.3 | 0.00 | 0.00 | 0.00 | 74 | 1009.8 |
| 20260509175002 | 20 | 181 | 1.6 | 8.0 | 0.00 | 0.00 | 0.00 | 73 | 1009.8 |
| 20260509174511 | 20 | 158 | 1.6 | 4.8 | 0.00 | 0.00 | 0.00 | 73 | 1009.8 |
| 20260509174101 | 20 | 187 | 0.0 | 12.9 | 0.00 | 0.00 | 0.00 | 74 | 1009.7 |
| 20260509173502 | 20 | 203 | 3.2 | 17.7 | 0.00 | 0.00 | 0.00 | 74 | 1009.9 |
| 20260509173008 | 20 | 191 | 1.6 | 17.7 | 0.00 | 0.00 | 0.00 | 72 | 1009.8 |
| 20260509172603 | 20 | 290 | 3.2 | 17.7 | 0.00 | 0.00 | 0.00 | 74 | 1009.8 |
| 20260509172002 | 20 | 161 | 6.4 | 11.3 | 0.00 | 0.00 | 0.00 | 72 | 1009.8 |
| 20260509171509 | 20 | 172 | 3.2 | 11.3 | 0.00 | 0.00 | 0.00 | 73 | 1009.9 |
| 20260509171104 | 20 | 167 | 3.2 | 11.3 | 0.00 | 0.00 | 0.00 | 73 | 1009.9 |
| 20260509170504 | 20 | 174 | 1.6 | 9.7 | 0.00 | 0.00 | 0.00 | 75 | 1010.0 |
| 20260509170008 | 20 | 173 | 0.0 | 17.7 | 0.00 | 0.00 | 0.00 | 75 | 1009.9 |
| 20260509165603 | 20 | 278 | 3.2 | 17.7 | 0.00 | 0.00 | 0.00 | 74 | 1010.0 |
| 20260509165002 | 20 | 151 | 3.2 | 11.3 | 0.00 | 0.00 | 0.00 | 75 | 1010.2 |
| 20260509164508 | 20 | 172 | 3.2 | 11.3 | 0.00 | 0.00 | 0.00 | 76 | 1010.3 |
| 20260509164106 | 20 | 178 | 3.2 | 11.3 | 0.00 | 0.00 | 0.00 | 76 | 1010.4 |
| 20260509163506 | 20 | 152 | 4.8 | 9.7 | 0.00 | 0.00 | 0.00 | 77 | 1010.6 |
| 20260509163009 | 20 | 188 | 4.8 | 9.7 | 0.00 | 0.00 | 0.00 | 75 | 1010.7 |
| 20260509162604 | 20 | 206 | 1.6 | 9.7 | 0.00 | 0.00 | 0.00 | 74 | 1010.8 |
| 20260509162109 | 20 | 207 | 0.0 | 9.7 | 0.00 | 0.00 | 0.00 | 75 | 1010.9 |
| 20260509161509 | 20 | 200 | 1.6 | 11.3 | 0.00 | 0.00 | 0.00 | 73 | 1010.8 |
| 20260509161102 | 20 | 142 | 1.6 | 11.3 | 0.00 | 0.00 | 0.00 | 75 | 1010.8 |
| 20260509160502 | 20 | 225 | 4.8 | 16.1 | 0.00 | 0.00 | 0.00 | 76 | 1010.8 |
| 20260509160009 | 20 | 157 | 4.8 | 14.5 | 0.00 | 0.00 | 0.00 | 76 | 1010.8 |
| 20260509155604 | 20 | 176 | 4.8 | 11.3 | 0.00 | 0.00 | 0.00 | 77 | 1010.8 |
| 20260509155002 | 20 | 172 | 3.2 | 11.3 | 0.00 | 0.00 | 0.00 | 77 | 1010.8 |
| 20260509154515 | 20 | 210 | 1.6 | 9.7 | 0.00 | 0.00 | 0.00 | 80 | 1010.8 |
| 20260509154104 | 19 | 192 | 3.2 | 9.7 | 0.00 | 0.00 | 0.00 | 79 | 1010.7 |
| 20260509153504 | 19 | 169 | 1.6 | 11.3 | 0.00 | 0.00 | 0.00 | 80 | 1010.7 |
| 20260509153012 | 18 | 178 | 1.6 | 11.3 | 0.00 | 0.00 | 0.00 | 82 | 1010.7 |
| 20260509152603 | 18 | 205 | 4.8 | 9.7 | 0.00 | 0.00 | 0.00 | 83 | 1010.8 |
| 20260509152002 | 18 | 163 | 1.6 | 9.7 | 0.00 | 0.00 | 0.00 | 84 | 1010.9 |
| 20260509151509 | 17 | 200 | 3.2 | 9.7 | 0.00 | 0.00 | 0.00 | 85 | 1010.9 |
| 20260509151102 | 17 | 206 | 3.2 | 8.0 | 0.00 | 0.00 | 0.00 | 85 | 1011.0 |
| 20260509150503 | 17 | 161 | 1.6 | 6.4 | 0.00 | 0.00 | 0.00 | 87 | 1010.8 |
| 20260509150009 | 17 | 146 | 0.0 | 9.7 | 0.00 | 0.00 | 0.00 | 87 | 1010.9 |
| 20260509145603 | 17 | 182 | 0.0 | 16.1 | 0.00 | 0.00 | 0.00 | 87 | 1011.1 |
| 20260509145005 | 17 | 157 | 0.0 | 0.0 | 0.00 | 0.00 | 0.00 | 87 | 1011.0 |
| 20260509144508 | 17 | 256 | 0.0 | 6.4 | 0.00 | 0.00 | 0.00 | 87 | 1010.8 |
| 20260509144103 | 17 | 167 | 0.0 | 12.9 | 0.00 | 0.00 | 0.00 | 87 | 1010.8 |
| 20260509143502 | 16 | 178 | 1.6 | 14.5 | 0.00 | 0.00 | 0.00 | 88 | 1010.8 |
| 20260509143009 | 16 | 177 | 4.8 | 9.7 | 0.00 | 0.00 | 0.00 | 89 | 1011.0 |
| 20260509142605 | 16 | 172 | 3.2 | 9.7 | 0.00 | 0.00 | 0.00 | 89 | 1010.9 |
| 20260509142002 | 16 | 195 | 0.0 | 11.3 | 0.00 | 0.00 | 0.00 | 89 | 1011.1 |
| 20260509141510 | 16 | 202 | 1.6 | 11.3 | 0.00 | 0.00 | 0.00 | 89 | 1011.1 |
| 20260509141103 | 16 | 224 | 0.0 | 8.0 | 0.00 | 0.00 | 0.00 | 89 | 1011.1 |
| 20260509140502 | 16 | 200 | 1.6 | 6.4 | 0.00 | 0.00 | 0.00 | 89 | 1011.3 |
| 20260509140008 | 16 | 200 | 0.0 | 6.4 | 0.00 | 0.00 | 0.00 | 90 | 1011.5 |
| 20260509135603 | 15 | 184 | 1.6 | 6.4 | 0.00 | 0.00 | 0.00 | 89 | 1011.4 |
| 20260509135002 | 15 | 175 | 0.0 | 3.2 | 0.00 | 0.00 | 0.00 | 91 | 1011.3 |
| 20260509134508 | 15 | 175 | 0.0 | 8.0 | 0.00 | 0.00 | 0.00 | 90 | 1011.4 |
| 20260509134103 | 15 | 175 | 1.6 | 8.0 | 0.00 | 0.00 | 0.00 | 91 | 1011.4 |
| 20260509133503 | 15 | 174 | 0.0 | 0.0 | 0.00 | 0.00 | 0.00 | 90 | 1011.6 |
| 20260509133013 | 15 | 167 | 0.0 | 0.0 | 0.00 | 0.00 | 0.00 | 91 | 1011.8 |
| 20260509132604 | 15 | 167 | 0.0 | 6.4 | 0.00 | 0.00 | 0.00 | 91 | 1012.0 |
| 20260509132002 | 14 | 200 | 0.0 | 0.0 | 0.00 | 0.00 | 0.00 | 91 | 1012.2 |
| 20260509131509 | 14 | 200 | 0.0 | 9.7 | 0.00 | 0.00 | 0.00 | 92 | 1012.2 |
| 20260509131101 | 14 | 196 | 0.0 | 9.7 | 0.00 | 0.00 | 0.00 | 92 | 1012.2 |
| 20260509130502 | 13 | 227 | 0.0 | 0.0 | 0.00 | 0.00 | 0.00 | 93 | 1012.2 |
| 20260509130009 | 13 | 229 | 0.0 | 0.0 | 0.00 | 0.00 | 0.00 | 95 | 1012.4 |
| 20260509125602 | 13 | 202 | 0.0 | 0.0 | 0.00 | 0.00 | 0.00 | 95 | 1012.4 |
| 20260509125004 | 13 | 202 | 0.0 | 8.0 | 0.00 | 0.00 | 0.00 | 97 | 1012.3 |
| 20260509124509 | 12 | 205 | 0.0 | 8.0 | 0.00 | 0.00 | 0.00 | 97 | 1012.3 |
| 20260509124103 | 12 | 188 | 0.0 | 3.2 | 0.00 | 0.00 | 0.00 | 97 | 1012.4 |
| 20260509123503 | 11 | 183 | 0.0 | 0.0 | 0.00 | 0.00 | 0.00 | 97 | 1012.3 |
| 20260509123010 | 11 | 183 | 0.0 | 0.0 | 0.00 | 0.00 | 0.00 | 97 | 1012.2 |
| 20260509122601 | 11 | 183 | 0.0 | 1.6 | 0.00 | 0.00 | 0.00 | 97 | 1012.3 |
| 20260509122002 | 11 | 193 | 0.0 | 9.7 | 0.00 | 0.00 | 0.00 | 97 | 1012.4 |
| 20260509121508 | 10 | 193 | 0.0 | 9.7 | 0.00 | 0.00 | 0.00 | 97 | 1012.1 |
| 20260509121104 | 10 | 217 | 0.0 | 9.7 | 0.00 | 0.00 | 0.00 | 97 | 1012.1 |
| 20260509120503 | 9 | 197 | 0.0 | 0.0 | 0.00 | 0.00 | 0.00 | 97 | 1011.9 |
| 20260509120010 | 9 | 197 | 0.0 | 0.0 | 0.00 | 0.00 | 0.00 | 97 | 1012.1 |
| 20260509115602 | 8 | 197 | 0.0 | 1.6 | 0.00 | 0.00 | 0.00 | 97 | 1012.1 |
| 20260509115108 | 8 | 197 | 0.0 | 1.6 | 0.00 | 0.00 | 0.00 | 96 | 1012.3 |
| 20260509114508 | 8 | 197 | 0.0 | 0.0 | 0.00 | 0.00 | 0.00 | 96 | 1012.1 |
| 20260509114103 | 8 | 197 | 0.0 | 0.0 | 0.00 | 0.00 | 0.00 | 96 | 1011.9 |
| 20260509113503 | 7 | 197 | 0.0 | 0.0 | 0.00 | 0.00 | 0.00 | 95 | 1012.0 |
| 20260509113010 | 7 | 197 | 0.0 | 0.0 | 0.00 | 0.00 | 0.00 | 95 | 1011.9 |
| 20260509112601 | 7 | 197 | 0.0 | 0.0 | 0.00 | 0.00 | 0.00 | 95 | 1012.0 |
| 20260509112003 | 7 | 197 | 0.0 | 0.0 | 0.00 | 0.00 | 0.00 | 95 | 1012.0 |
| 20260509111508 | 7 | 197 | 0.0 | 0.0 | 0.00 | 0.00 | 0.00 | 95 | 1012.0 |
| 20260509111103 | 7 | 197 | 0.0 | 0.0 | 0.00 | 0.00 | 0.00 | 95 | 1012.0 |
| 20260509110501 | 7 | 197 | 0.0 | 0.0 | 0.00 | 0.00 | 0.00 | 95 | 1012.0 |
| 20260509110012 | 7 | 197 | 0.0 | 0.0 | 0.00 | 0.00 | 0.00 | 95 | 1012.1 |
| 20260509105602 | 7 | 197 | 0.0 | 0.0 | 0.00 | 0.00 | 0.00 | 95 | 1012.0 |
| 20260509105003 | 7 | 197 | 0.0 | 0.0 | 0.00 | 0.00 | 0.00 | 95 | 1012.0 |
| 20260509104508 | 7 | 197 | 0.0 | 0.0 | 0.00 | 0.00 | 0.00 | 95 | 1011.9 |
| 20260509104108 | 7 | 197 | 0.0 | 0.0 | 0.00 | 0.00 | 0.00 | 95 | 1011.9 |
| 20260509103502 | 7 | 197 | 0.0 | 0.0 | 0.00 | 0.00 | 0.00 | 94 | 1011.7 |
| 20260509103014 | 7 | 197 | 0.0 | 0.0 | 0.00 | 0.00 | 0.00 | 94 | 1011.5 |
| 20260509102602 | 7 | 197 | 0.0 | 0.0 | 0.00 | 0.00 | 0.00 | 94 | 1011.4 |
| 20260509102001 | 7 | 197 | 0.0 | 0.0 | 0.00 | 0.00 | 0.00 | 94 | 1011.4 |
| 20260509101509 | 7 | 197 | 0.0 | 0.0 | 0.00 | 0.00 | 0.00 | 94 | 1011.4 |
| 20260509101104 | 7 | 197 | 0.0 | 0.0 | 0.00 | 0.00 | 0.00 | 94 | 1011.3 |
| 20260509100503 | 7 | 197 | 0.0 | 0.0 | 0.00 | 0.00 | 0.00 | 94 | 1011.3 |
| 20260509100014 | 7 | 197 | 0.0 | 0.0 | 0.00 | 0.00 | 0.00 | 94 | 1011.2 |
| 20260509095607 | 7 | 197 | 0.0 | 0.0 | 0.00 | 0.00 | 0.00 | 94 | 1011.2 |
| 20260509095106 | 7 | 197 | 0.0 | 0.0 | 0.00 | 0.00 | 0.00 | 94 | 1011.1 |
| 20260509094507 | 7 | 197 | 0.0 | 0.0 | 0.00 | 0.00 | 0.00 | 94 | 1011.2 |
| 20260509094010 | 7 | 197 | 0.0 | 0.0 | 0.00 | 0.00 | 0.00 | 94 | 1011.1 |
| 20260509093605 | 7 | 197 | 0.0 | 0.0 | 0.00 | 0.00 | 0.00 | 94 | 1011.1 |
| 20260509093004 | 7 | 197 | 0.0 | 0.0 | 0.00 | 0.00 | 0.00 | 94 | 1011.2 |
| 20260509092516 | 7 | 197 | 0.0 | 0.0 | 0.00 | 0.00 | 0.00 | 94 | 1011.3 |
| 20260509092103 | 7 | 197 | 0.0 | 0.0 | 0.00 | 0.00 | 0.00 | 93 | 1011.3 |
| 20260509091504 | 7 | 197 | 0.0 | 0.0 | 0.00 | 0.00 | 0.00 | 93 | 1011.5 |
| 20260509091014 | 7 | 197 | 0.0 | 0.0 | 0.00 | 0.00 | 0.00 | 93 | 1011.7 |
| 20260509090605 | 8 | 197 | 0.0 | 0.0 | 0.00 | 0.00 | 0.00 | 93 | 1011.6 |
| 20260509090006 | 8 | 197 | 0.0 | 0.0 | 0.00 | 0.00 | 0.00 | 93 | 1011.6 |
| 20260509085509 | 8 | 197 | 0.0 | 0.0 | 0.00 | 0.00 | 0.00 | 93 | 1011.7 |
| 20260509085105 | 8 | 197 | 0.0 | 0.0 | 0.00 | 0.00 | 0.00 | 94 | 1011.7 |
| 20260509084504 | 8 | 197 | 0.0 | 0.0 | 0.00 | 0.00 | 0.00 | 93 | 1011.6 |
| 20260509084013 | 8 | 197 | 0.0 | 0.0 | 0.00 | 0.00 | 0.00 | 93 | 1011.6 |
| 20260509083605 | 8 | 197 | 0.0 | 0.0 | 0.00 | 0.00 | 0.00 | 93 | 1011.5 |
| 20260509083010 | 8 | 197 | 0.0 | 0.0 | 0.00 | 0.00 | 0.00 | 93 | 1011.6 |
| 20260509082511 | 8 | 197 | 0.0 | 0.0 | 0.00 | 0.00 | 0.00 | 93 | 1011.5 |
| 20260509082106 | 8 | 197 | 0.0 | 0.0 | 0.00 | 0.00 | 0.00 | 93 | 1011.6 |
| 20260509081511 | 8 | 197 | 0.0 | 0.0 | 0.00 | 0.00 | 0.00 | 93 | 1011.5 |
| 20260509081010 | 8 | 197 | 0.0 | 0.0 | 0.00 | 0.00 | 0.00 | 93 | 1011.6 |
| 20260509080604 | 8 | 197 | 0.0 | 0.0 | 0.00 | 0.00 | 0.00 | 93 | 1011.7 |
| 20260509080003 | 8 | 197 | 0.0 | 1.6 | 0.00 | 0.00 | 0.00 | 93 | 1011.7 |
| 20260509075510 | 8 | 197 | 0.0 | 1.6 | 0.00 | 0.00 | 0.00 | 93 | 1011.7 |
| 20260509075105 | 8 | 197 | 0.0 | 1.6 | 0.00 | 0.00 | 0.00 | 93 | 1011.8 |
| 20260509074509 | 8 | 197 | 0.0 | 1.6 | 0.00 | 0.00 | 0.00 | 92 | 1011.8 |
| 20260509074010 | 8 | 197 | 0.0 | 0.0 | 0.00 | 0.00 | 0.00 | 92 | 1012.0 |
| 20260509073604 | 8 | 197 | 0.0 | 0.0 | 0.00 | 0.00 | 0.00 | 92 | 1012.0 |
| 20260509073005 | 8 | 197 | 0.0 | 0.0 | 0.00 | 0.00 | 0.00 | 92 | 1012.1 |
| 20260509072510 | 8 | 197 | 0.0 | 0.0 | 0.00 | 0.00 | 0.00 | 92 | 1012.0 |
| 20260509072103 | 8 | 197 | 0.0 | 0.0 | 0.00 | 0.00 | 0.00 | 92 | 1012.0 |
| 20260509071504 | 8 | 197 | 0.0 | 0.0 | 0.00 | 0.00 | 0.00 | 92 | 1012.0 |
| 20260509071010 | 8 | 197 | 0.0 | 0.0 | 0.00 | 0.00 | 0.00 | 91 | 1012.1 |
| 20260509070604 | 8 | 197 | 0.0 | 0.0 | 0.00 | 0.00 | 0.00 | 91 | 1012.2 |
| 20260509070002 | 8 | 197 | 0.0 | 1.6 | 0.00 | 0.00 | 0.00 | 91 | 1012.2 |
| 20260509065509 | 9 | 197 | 0.0 | 1.6 | 0.00 | 0.00 | 0.00 | 91 | 1012.3 |
| 20260509065103 | 9 | 197 | 0.0 | 0.0 | 0.00 | 0.00 | 0.00 | 91 | 1012.3 |
| 20260509064504 | 9 | 197 | 0.0 | 0.0 | 0.00 | 0.00 | 0.00 | 90 | 1012.3 |
| 20260509064008 | 9 | 197 | 0.0 | 0.0 | 0.00 | 0.00 | 0.00 | 90 | 1012.2 |
| 20260509063605 | 9 | 197 | 0.0 | 0.0 | 0.00 | 0.00 | 0.00 | 90 | 1012.3 |
| 20260509063004 | 9 | 197 | 0.0 | 0.0 | 0.00 | 0.00 | 0.00 | 90 | 1012.4 |
| 20260509062511 | 9 | 197 | 0.0 | 0.0 | 0.00 | 0.00 | 0.00 | 90 | 1012.5 |
| 20260509062105 | 9 | 197 | 0.0 | 0.0 | 0.00 | 0.00 | 0.00 | 90 | 1012.5 |
| 20260509061504 | 9 | 197 | 0.0 | 0.0 | 0.00 | 0.00 | 0.00 | 90 | 1012.6 |
| 20260509061010 | 9 | 197 | 0.0 | 0.0 | 0.00 | 0.00 | 0.00 | 90 | 1012.6 |
| 20260509060606 | 9 | 197 | 0.0 | 0.0 | 0.00 | 0.00 | 0.00 | 90 | 1012.8 |
| 20260509060004 | 10 | 197 | 0.0 | 0.0 | 0.00 | 0.00 | 0.00 | 89 | 1012.9 |
| 20260509055510 | 10 | 197 | 0.0 | 0.0 | 0.00 | 0.00 | 0.00 | 89 | 1012.9 |
| 20260509055105 | 10 | 197 | 0.0 | 0.0 | 0.00 | 0.00 | 0.00 | 89 | 1012.9 |
| 20260509054503 | 10 | 197 | 0.0 | 0.0 | 0.00 | 0.00 | 0.00 | 89 | 1013.0 |
| 20260509054009 | 10 | 197 | 0.0 | 0.0 | 0.00 | 0.00 | 0.00 | 89 | 1013.1 |
| 20260509053604 | 10 | 197 | 0.0 | 0.0 | 0.00 | 0.00 | 0.00 | 88 | 1013.2 |
| 20260509053003 | 10 | 197 | 0.0 | 0.0 | 0.00 | 0.00 | 0.00 | 88 | 1013.3 |
| 20260509052509 | 10 | 197 | 0.0 | 0.0 | 0.00 | 0.00 | 0.00 | 89 | 1013.4 |
| 20260509052104 | 10 | 197 | 0.0 | 0.0 | 0.00 | 0.00 | 0.00 | 88 | 1013.4 |
| 20260509051504 | 10 | 197 | 0.0 | 0.0 | 0.00 | 0.00 | 0.00 | 88 | 1013.5 |
| 20260509051010 | 10 | 197 | 0.0 | 0.0 | 0.00 | 0.00 | 0.00 | 88 | 1013.5 |
| 20260509050603 | 10 | 197 | 0.0 | 0.0 | 0.00 | 0.00 | 0.00 | 88 | 1013.6 |
| 20260509050006 | 10 | 197 | 0.0 | 0.0 | 0.00 | 0.00 | 0.00 | 88 | 1013.6 |
| 20260509045509 | 10 | 197 | 0.0 | 0.0 | 0.00 | 0.00 | 0.00 | 88 | 1013.7 |
| 20260509045103 | 10 | 197 | 0.0 | 0.0 | 0.00 | 0.00 | 0.00 | 88 | 1013.7 |
| 20260509044504 | 10 | 197 | 0.0 | 0.0 | 0.00 | 0.00 | 0.00 | 88 | 1013.8 |
| 20260509044012 | 10 | 197 | 0.0 | 0.0 | 0.00 | 0.00 | 0.00 | 88 | 1013.8 |
| 20260509043603 | 10 | 197 | 0.0 | 0.0 | 0.00 | 0.00 | 0.00 | 88 | 1013.8 |
| 20260509043004 | 10 | 197 | 0.0 | 0.0 | 0.00 | 0.00 | 0.00 | 88 | 1013.8 |
| 20260509042509 | 10 | 197 | 0.0 | 0.0 | 0.00 | 0.00 | 0.00 | 88 | 1013.7 |
| 20260509042103 | 10 | 197 | 0.0 | 0.0 | 0.00 | 0.00 | 0.00 | 88 | 1013.7 |
| 20260509041506 | 10 | 197 | 0.0 | 0.0 | 0.00 | 0.00 | 0.00 | 87 | 1013.7 |
| 20260509041004 | 10 | 197 | 0.0 | 0.0 | 0.00 | 0.00 | 0.00 | 87 | 1013.7 |
| 20260509040503 | 10 | 197 | 0.0 | 0.0 | 0.00 | 0.00 | 0.00 | 87 | 1013.6 |
| 20260509040011 | 10 | 197 | 0.0 | 0.0 | 0.00 | 0.00 | 0.00 | 86 | 1013.7 |
| 20260509035604 | 11 | 197 | 0.0 | 0.0 | 0.00 | 0.00 | 0.00 | 87 | 1013.7 |
| 20260509035004 | 11 | 197 | 0.0 | 0.0 | 0.00 | 0.00 | 0.00 | 87 | 1013.6 |
| 20260509034510 | 11 | 197 | 0.0 | 0.0 | 0.00 | 0.00 | 0.00 | 87 | 1013.7 |
| 20260509034104 | 11 | 197 | 0.0 | 0.0 | 0.00 | 0.00 | 0.00 | 87 | 1013.6 |
| 20260509033504 | 11 | 197 | 0.0 | 0.0 | 0.00 | 0.00 | 0.00 | 87 | 1013.7 |
| 20260509033010 | 11 | 197 | 0.0 | 0.0 | 0.00 | 0.00 | 0.00 | 87 | 1013.7 |
| 20260509032605 | 11 | 197 | 0.0 | 0.0 | 0.00 | 0.00 | 0.00 | 87 | 1013.6 |
| 20260509032004 | 11 | 197 | 0.0 | 0.0 | 0.00 | 0.00 | 0.00 | 86 | 1013.6 |
| 20260509031513 | 11 | 197 | 0.0 | 0.0 | 0.00 | 0.00 | 0.00 | 86 | 1013.5 |
| 20260509031105 | 11 | 197 | 0.0 | 0.0 | 0.00 | 0.00 | 0.00 | 86 | 1013.6 |
| 20260509030504 | 11 | 197 | 0.0 | 0.0 | 0.00 | 0.00 | 0.00 | 86 | 1013.6 |
| 20260509030014 | 11 | 197 | 0.0 | 0.0 | 0.00 | 0.00 | 0.00 | 86 | 1013.7 |
| 20260509025603 | 11 | 197 | 0.0 | 0.0 | 0.00 | 0.00 | 0.00 | 85 | 1013.9 |
| 20260509025003 | 11 | 197 | 0.0 | 0.0 | 0.00 | 0.00 | 0.00 | 85 | 1013.9 |
| 20260509024511 | 11 | 197 | 0.0 | 0.0 | 0.00 | 0.00 | 0.00 | 85 | 1013.9 |
| 20260509024104 | 11 | 197 | 0.0 | 0.0 | 0.00 | 0.00 | 0.00 | 85 | 1013.8 |
| 20260509023502 | 11 | 197 | 0.0 | 0.0 | 0.00 | 0.00 | 0.00 | 85 | 1014.0 |
| 20260509023016 | 11 | 197 | 0.0 | 0.0 | 0.00 | 0.00 | 0.00 | 85 | 1013.9 |
| 20260509022604 | 11 | 197 | 0.0 | 0.0 | 0.00 | 0.00 | 0.00 | 85 | 1014.0 |
| 20260509022004 | 11 | 197 | 0.0 | 0.0 | 0.00 | 0.00 | 0.00 | 84 | 1014.0 |
| 20260509021510 | 11 | 197 | 0.0 | 0.0 | 0.00 | 0.00 | 0.00 | 84 | 1014.0 |
| 20260509021103 | 11 | 197 | 0.0 | 0.0 | 0.00 | 0.00 | 0.00 | 83 | 1014.0 |
| 20260509020505 | 11 | 197 | 0.0 | 0.0 | 0.00 | 0.00 | 0.00 | 83 | 1014.1 |
| 20260509020012 | 11 | 197 | 0.0 | 0.0 | 0.00 | 0.00 | 0.00 | 83 | 1014.0 |
| 20260509015604 | 12 | 197 | 0.0 | 0.0 | 0.00 | 0.00 | 0.00 | 83 | 1014.0 |
| 20260509015004 | 12 | 197 | 0.0 | 0.0 | 0.00 | 0.00 | 0.00 | 82 | 1013.9 |
| 20260509014511 | 12 | 197 | 0.0 | 0.0 | 0.00 | 0.00 | 0.00 | 81 | 1013.9 |
| 20260509014105 | 12 | 197 | 0.0 | 0.0 | 0.00 | 0.00 | 0.00 | 81 | 1013.9 |
| 20260509013503 | 12 | 197 | 0.0 | 0.0 | 0.00 | 0.00 | 0.00 | 81 | 1013.9 |
| 20260509013011 | 12 | 197 | 0.0 | 0.0 | 0.00 | 0.00 | 0.00 | 82 | 1013.9 |
| 20260509012605 | 12 | 197 | 0.0 | 0.0 | 0.00 | 0.00 | 0.00 | 81 | 1013.8 |
| 20260509012003 | 12 | 197 | 0.0 | 0.0 | 0.00 | 0.00 | 0.00 | 81 | 1013.8 |
| 20260509011510 | 12 | 197 | 0.0 | 0.0 | 0.00 | 0.00 | 0.00 | 81 | 1013.6 |
| 20260509011106 | 12 | 197 | 0.0 | 0.0 | 0.00 | 0.00 | 0.00 | 81 | 1013.6 |
| 20260509010504 | 13 | 197 | 0.0 | 0.0 | 0.00 | 0.00 | 0.00 | 79 | 1013.6 |
| 20260509010014 | 13 | 197 | 0.0 | 0.0 | 0.00 | 0.00 | 0.00 | 78 | 1013.6 |
| 20260509005511 | 13 | 197 | 0.0 | 0.0 | 0.00 | 0.00 | 0.00 | 79 | 1013.5 |
| 20260509005102 | 13 | 197 | 0.0 | 0.0 | 0.00 | 0.00 | 0.00 | 78 | 1013.4 |
| 20260509004507 | 13 | 197 | 0.0 | 0.0 | 0.00 | 0.00 | 0.00 | 76 | 1013.5 |
| 20260509004011 | 13 | 197 | 0.0 | 0.0 | 0.00 | 0.00 | 0.00 | 74 | 1013.5 |
| 20260509003604 | 14 | 197 | 0.0 | 0.0 | 0.00 | 0.00 | 0.00 | 73 | 1013.5 |
| 20260509003004 | 14 | 197 | 0.0 | 0.0 | 0.00 | 0.00 | 0.00 | 72 | 1013.4 |
| 20260509002511 | 14 | 197 | 0.0 | 0.0 | 0.00 | 0.00 | 0.00 | 72 | 1013.4 |
| 20260509002103 | 15 | 197 | 0.0 | 0.0 | 0.00 | 0.00 | 0.00 | 70 | 1013.3 |
| 20260509001504 | 15 | 197 | 0.0 | 0.0 | 0.00 | 0.00 | 0.00 | 69 | 1013.1 |
| 20260509001009 | 15 | 197 | 0.0 | 0.0 | 0.00 | 0.00 | 0.00 | 67 | 1013.0 |
| 20260509000605 | 15 | 197 | 0.0 | 0.0 | 0.00 | 0.00 | 0.00 | 67 | 1013.1 |
| 20260509000003 | 16 | 197 | 0.0 | 0.0 | 0.00 | 0.00 | 0.00 | 66 | 1013.1 |
| 20260508235509 | 16 | 197 | 0.0 | 0.0 | 0.00 | 0.00 | 0.00 | 65 | 1013.0 |
| 20260508235103 | 16 | 197 | 0.0 | 0.0 | 0.00 | 0.00 | 0.00 | 65 | 1013.0 |
| 20260508234503 | 16 | 197 | 0.0 | 0.0 | 0.00 | 0.00 | 0.00 | 65 | 1013.0 |
| 20260508234010 | 16 | 197 | 0.0 | 0.0 | 0.00 | 0.00 | 0.00 | 64 | 1013.1 |
| 20260508233604 | 17 | 197 | 0.0 | 0.0 | 0.00 | 0.00 | 0.00 | 64 | 1013.0 |
| 20260508233003 | 17 | 197 | 0.0 | 0.0 | 0.00 | 0.00 | 0.00 | 62 | 1013.1 |
| 20260508232509 | 17 | 197 | 0.0 | 0.0 | 0.00 | 0.00 | 0.00 | 58 | 1013.2 |
| 20260508232102 | 17 | 197 | 0.0 | 0.0 | 0.00 | 0.00 | 0.00 | 59 | 1013.2 |
| 20260508231503 | 17 | 197 | 0.0 | 0.0 | 0.00 | 0.00 | 0.00 | 56 | 1013.4 |
| 20260508231009 | 17 | 197 | 0.0 | 0.0 | 0.00 | 0.00 | 0.00 | 55 | 1013.2 |
| 20260508230603 | 17 | 197 | 0.0 | 0.0 | 0.00 | 0.00 | 0.00 | 56 | 1013.2 |
| 20260508230004 | 18 | 197 | 0.0 | 1.6 | 0.00 | 0.00 | 0.00 | 56 | 1013.2 |
| 20260508225510 | 18 | 197 | 0.0 | 1.6 | 0.00 | 0.03 | 0.00 | 56 | 1013.2 |
| 20260508225103 | 18 | 197 | 0.0 | 4.8 | 0.00 | 0.03 | 0.00 | 51 | 1013.2 |
| 20260508224502 | 18 | 197 | 0.0 | 6.4 | 0.00 | 0.03 | 0.00 | 55 | 1013.2 |
| 20260508224009 | 18 | 188 | 1.6 | 4.8 | 0.00 | 0.03 | 0.00 | 58 | 1013.2 |
| 20260508223604 | 18 | 233 | 0.0 | 3.2 | 0.00 | 0.03 | 0.00 | 48 | 1013.2 |
| 20260508223003 | 18 | 233 | 0.0 | 1.6 | 0.00 | 0.03 | 0.00 | 52 | 1013.2 |
| 20260508222510 | 18 | 233 | 0.0 | 1.6 | 0.00 | 0.03 | 0.00 | 43 | 1013.2 |
| 20260508222106 | 18 | 233 | 0.0 | 0.0 | 0.00 | 0.03 | 0.00 | 49 | 1013.2 |
| 20260508221504 | 18 | 233 | 0.0 | 3.2 | 0.00 | 0.03 | 0.00 | 50 | 1013.2 |
| 20260508221010 | 18 | 233 | 0.0 | 3.2 | 0.00 | 0.03 | 0.00 | 47 | 1013.0 |
| 20260508220602 | 19 | 233 | 0.0 | 3.2 | 0.00 | 0.03 | 0.00 | 51 | 1013.0 |
| 20260508220002 | 19 | 233 | 0.0 | 3.2 | 0.00 | 0.03 | 0.00 | 45 | 1012.9 |
| 20260508215509 | 19 | 233 | 0.0 | 6.4 | 0.00 | 0.08 | 0.00 | 41 | 1013.0 |
| 20260508215103 | 19 | 233 | 3.2 | 6.4 | 0.00 | 0.08 | 0.00 | 37 | 1012.8 |
| 20260508214504 | 19 | 188 | 0.0 | 4.8 | 0.00 | 0.08 | 0.00 | 39 | 1013.0 |
| 20260508214009 | 20 | 188 | 0.0 | 4.8 | 0.00 | 0.08 | 0.00 | 40 | 1013.1 |
| 20260508213604 | 20 | 217 | 1.6 | 4.8 | 0.00 | 0.08 | 0.00 | 43 | 1013.3 |
| 20260508213008 | 20 | 217 | 0.0 | 4.8 | 0.00 | 0.08 | 0.00 | 47 | 1013.2 |
| 20260508212517 | 20 | 217 | 1.6 | 4.8 | 0.00 | 0.08 | 0.00 | 41 | 1013.3 |
| 20260508212103 | 20 | 217 | 0.0 | 4.8 | 0.00 | 0.08 | 0.00 | 48 | 1013.4 |
| 20260508211505 | 20 | 217 | 0.0 | 4.8 | 0.00 | 0.08 | 0.00 | 41 | 1013.2 |
| 20260508211009 | 20 | 217 | 0.0 | 6.4 | 0.00 | 0.08 | 0.00 | 37 | 1013.2 |
| 20260508210604 | 20 | 217 | 1.6 | 6.4 | 0.00 | 0.08 | 0.00 | 33 | 1013.2 |
| 20260508210007 | 21 | 205 | 1.6 | 9.7 | 0.00 | 0.08 | 0.00 | 40 | 1013.2 |
| 20260508205509 | 21 | 170 | 3.2 | 16.1 | 0.00 | 0.53 | 0.00 | 38 | 1013.3 |
| 20260508205103 | 21 | 228 | 4.8 | 16.1 | 0.00 | 0.53 | 0.00 | 37 | 1013.3 |
| 20260508204503 | 21 | 209 | 3.2 | 11.3 | 0.00 | 0.53 | 0.00 | 33 | 1013.4 |
| 20260508204009 | 21 | 215 | 4.8 | 14.5 | 0.00 | 0.53 | 0.00 | 36 | 1013.4 |
| 20260508203605 | 21 | 208 | 0.0 | 14.5 | 0.00 | 0.53 | 0.00 | 35 | 1013.5 |
| 20260508203004 | 21 | 214 | 3.2 | 14.5 | 0.00 | 0.53 | 0.00 | 35 | 1013.4 |
| 20260508202509 | 21 | 155 | 3.2 | 14.5 | 0.00 | 0.53 | 0.00 | 36 | 1013.6 |
| 20260508202103 | 21 | 195 | 4.8 | 14.5 | 0.00 | 0.53 | 0.00 | 39 | 1013.8 |
| 20260508201503 | 22 | 210 | 1.6 | 11.3 | 0.00 | 0.53 | 0.00 | 35 | 1014.0 |
| 20260508201010 | 22 | 234 | 1.6 | 9.7 | 0.00 | 0.53 | 0.00 | 42 | 1014.0 |
| 20260508200603 | 22 | 176 | 4.8 | 9.7 | 0.00 | 0.53 | 0.00 | 38 | 1014.0 |
| 20260508200003 | 22 | 159 | 1.6 | 8.0 | 0.00 | 0.53 | 0.00 | 37 | 1013.9 |
| 20260508195510 | 22 | 202 | 1.6 | 4.8 | 0.00 | 0.53 | 0.00 | 40 | 1013.9 |
| 20260508195104 | 22 | 257 | 0.0 | 4.8 | 0.00 | 0.53 | 0.00 | 34 | 1014.0 |
| 20260508194504 | 22 | 214 | 0.0 | 4.8 | 0.00 | 0.53 | 0.00 | 38 | 1014.1 |
| 20260508194009 | 22 | 214 | 1.6 | 6.4 | 0.00 | 0.53 | 0.00 | 38 | 1014.2 |
| 20260508193603 | 21 | 215 | 3.2 | 9.7 | 0.00 | 0.53 | 0.00 | 34 | 1014.1 |
| 20260508193003 | 21 | 181 | 1.6 | 8.0 | 0.00 | 0.53 | 0.00 | 37 | 1014.2 |
| 20260508192512 | 21 | 202 | 3.2 | 6.4 | 0.00 | 0.53 | 0.00 | 35 | 1014.3 |
| 20260508192103 | 21 | 205 | 3.2 | 6.4 | 0.00 | 0.53 | 0.00 | 38 | 1014.4 |
| 20260508191503 | 21 | 216 | 3.2 | 9.7 | 0.00 | 0.53 | 0.00 | 37 | 1014.5 |
| 20260508191009 | 21 | 159 | 1.6 | 9.7 | 0.00 | 0.53 | 0.00 | 38 | 1014.8 |
| 20260508190603 | 22 | 191 | 3.2 | 9.7 | 0.00 | 0.53 | 0.00 | 38 | 1014.7 |
| 20260508190005 | 22 | 180 | 1.6 | 6.4 | 0.00 | 0.53 | 0.00 | 37 | 1014.7 |
| 20260508185509 | 21 | 304 | 1.6 | 11.3 | 0.00 | 0.53 | 0.00 | 33 | 1014.6 |
| 20260508185104 | 21 | 188 | 1.6 | 11.3 | 0.00 | 0.53 | 0.00 | 39 | 1014.7 |
| 20260508184507 | 21 | 230 | 1.6 | 6.4 | 0.00 | 0.53 | 0.00 | 40 | 1014.8 |
| 20260508184011 | 21 | 175 | 1.6 | 6.4 | 0.00 | 0.53 | 0.00 | 41 | 1014.9 |
| 20260508183603 | 21 | 174 | 1.6 | 6.4 | 0.00 | 0.53 | 0.00 | 39 | 1014.9 |